FW1308 Weather Reports


Display with metric or nautical units.
time (UTC)temp
F
wind
direction
speed
MPH
gust
MPH
rain 1hr
in
rain 24hr
in
rain mn
in
humidity
%
barometer
mb
20260507124510 61 3 0.0 6.0 0.00 0.00 0.00 51 1016.5
20260507123007 62 188 3.0 11.0 0.00 0.00 0.00 52 1016.5
20260507121507 61 172 1.0 6.0 0.00 0.00 0.00 55 1016.5
20260507120009 61 126 2.0 6.0 0.00 0.00 0.00 56 1016.7
20260507114501 59 6 2.0 8.0 0.00 0.00 0.00 59 1016.8
20260507113102 60 330 3.0 6.0 0.00 0.00 0.00 57 1016.8
20260507111607 59 186 2.0 7.0 0.00 0.00 0.00 61 1016.9
20260507110109 59 213 2.0 6.0 0.00 0.00 0.00 60 1016.9
20260507104554 58 133 1.0 5.0 0.00 0.00 0.00 63 1017.0
20260507103052 58 194 2.0 7.0 0.00 0.00 0.00 64 1017.0
20260507101557 57 331 1.0 6.0 0.00 0.00 0.00 66 1017.1
20260507100048 56 49 2.0 9.0 0.00 0.00 0.00 67 1017.1
20260507094547 56 167 3.0 7.0 0.00 0.00 0.00 66 1017.2
20260507093049 55 201 1.0 9.0 0.00 0.00 0.00 70 1017.1
20260507091538 54 233 0.0 6.0 0.00 0.00 0.00 70 1017.2
20260507090038 53 230 0.0 8.0 0.00 0.00 0.00 73 1017.3
20260507084535 52 171 2.0 5.0 0.00 0.00 0.00 74 1017.4
20260507083034 52 210 4.0 8.0 0.00 0.00 0.00 73 1017.3
20260507081542 53 191 0.0 5.0 0.00 0.00 0.00 74 1017.2
20260507080030 53 12 0.0 5.0 0.00 0.00 0.00 75 1017.3
20260507074545 52 165 0.0 0.0 0.00 0.00 0.00 76 1017.2
20260507073027 51 27 0.0 0.0 0.00 0.00 0.00 77 1017.2
20260507071507 50 33 0.0 0.0 0.00 0.00 0.00 78 1017.2
20260507070005 50 124 0.0 0.0 0.00 0.00 0.00 78 1017.2
20260507064600 49 221 0.0 0.0 0.00 0.00 0.00 81 1017.2
20260507063058 47 94 0.0 0.0 0.00 0.00 0.00 82 1017.1
20260507061554 46 91 0.0 0.0 0.00 0.00 0.00 86 1017.1
20260507060051 45 206 0.0 0.0 0.00 0.00 0.00 88 1017.0
20260507054618 43 259 0.0 0.0 0.00 0.00 0.00 91 1016.9
20260507053051 41 143 0.0 0.0 0.00 0.00 0.00 92 1016.9
20260507051546 40 141 0.0 0.0 0.00 0.00 0.00 92 1016.9
20260507050052 40 141 0.0 0.0 0.00 0.00 0.00 92 1016.9
20260507044549 40 141 0.0 0.0 0.00 0.00 0.00 92 1016.9
20260507043045 40 32 0.0 0.0 0.00 0.00 0.00 91 1016.9
20260507041545 41 32 0.0 0.0 0.00 0.00 0.00 91 1016.8
20260507040044 41 32 0.0 0.0 0.00 0.00 0.00 90 1016.7
20260507034546 42 247 0.0 0.0 0.00 0.00 0.00 90 1016.7
20260507033042 42 247 0.0 0.0 0.00 0.00 0.00 90 1016.6
20260507031546 42 247 0.0 0.0 0.00 0.00 0.00 90 1016.7
20260507030048 42 247 0.0 0.0 0.00 0.00 0.00 90 1016.6
20260507024542 42 244 0.0 0.0 0.00 0.00 0.00 90 1016.7
20260507023034 42 245 0.0 0.0 0.00 0.00 0.00 90 1016.7
20260507021535 42 245 0.0 0.0 0.00 0.00 0.00 89 1016.7
20260507020033 43 245 0.0 0.0 0.00 0.00 0.00 89 1016.8
20260507014544 43 245 0.0 0.0 0.00 0.00 0.00 89 1016.8
20260507013030 43 245 0.0 0.0 0.00 0.00 0.00 89 1016.9
20260507011532 43 261 0.0 0.0 0.00 0.00 0.00 89 1016.9
20260507010033 43 261 0.0 0.0 0.00 0.00 0.00 89 1016.9
20260507004528 43 243 0.0 0.0 0.00 0.00 0.00 89 1016.9
20260507003026 42 161 0.0 0.0 0.00 0.00 0.00 89 1016.9
20260507001527 42 161 0.0 0.0 0.00 0.00 0.00 89 1017.1
20260507000032 42 160 0.0 0.0 0.00 0.00 0.00 90 1017.2
20260506234521 42 261 0.0 0.0 0.00 0.00 0.00 90 1017.3
20260506233018 41 269 0.0 0.0 0.00 0.00 0.00 91 1017.2
20260506231515 40 267 0.0 0.0 0.00 0.00 0.00 90 1017.3
20260506230014 40 32 0.0 0.0 0.00 0.00 0.00 89 1017.3
20260506224512 41 32 0.0 0.0 0.00 0.00 0.00 88 1017.3
20260506223007 42 32 0.0 0.0 0.00 0.00 0.00 87 1017.1
20260506221506 43 32 0.0 0.0 0.00 0.00 0.00 87 1016.9
20260506220015 43 41 0.0 0.0 0.00 0.00 0.00 87 1016.8
20260506214502 43 9 0.0 3.0 0.00 0.00 0.00 86 1016.8
20260506213001 43 343 0.0 3.0 0.00 0.00 0.00 86 1016.7
20260506211600 44 357 0.0 3.0 0.00 0.00 0.00 85 1016.7
20260506210059 44 55 1.0 4.0 0.00 0.00 0.00 84 1016.5
20260506204558 45 30 1.0 4.0 0.00 0.00 0.00 83 1016.5
20260506203057 46 37 0.0 5.0 0.00 0.00 0.00 83 1016.6
20260506201556 46 56 1.0 3.0 0.00 0.00 0.00 81 1016.4
20260506200055 46 15 1.0 5.0 0.00 0.00 0.00 81 1016.3
20260506194616 46 30 0.0 4.0 0.00 0.00 0.00 80 1016.1
20260506193103 47 17 1.0 8.0 0.00 0.00 0.00 80 1015.8
20260506191552 47 43 1.0 5.0 0.00 0.00 0.00 80 1015.9
20260506190052 47 44 2.0 0.0 0.00 0.00 0.00 80 1016.0
20260506184551 48 8 2.0 7.0 0.00 0.00 0.00 79 1016.0
20260506183050 48 32 1.0 6.0 0.00 0.00 0.00 80 1016.0
20260506181548 48 34 2.0 8.0 0.00 0.00 0.00 80 1015.9
20260506180100 49 42 3.0 8.0 0.00 0.00 0.00 79 1015.8
20260506174549 49 13 0.0 5.0 0.00 0.00 0.00 79 1015.7
20260506173051 49 86 1.0 6.0 0.00 0.00 0.00 78 1015.7
20260506171550 49 2 2.0 7.0 0.00 0.00 0.00 77 1015.7
20260506170058 50 38 0.0 3.0 0.00 0.00 0.00 76 1015.6
20260506164545 50 45 1.0 6.0 0.00 0.00 0.00 77 1015.6
20260506163104 50 352 2.0 7.0 0.00 0.00 0.00 76 1015.6
20260506161542 50 4 1.0 7.0 0.00 0.00 0.00 76 1015.5
20260506160042 50 41 0.0 6.0 0.00 0.00 0.00 75 1015.6
20260506154602 50 67 3.0 8.0 0.00 0.00 0.00 74 1015.4
20260506153049 51 27 3.0 7.0 0.00 0.00 0.00 73 1015.5
20260506151539 51 49 4.0 10.0 0.00 0.00 0.00 73 1015.4
20260506150038 52 27 3.0 9.0 0.00 0.00 0.00 71 1015.3
20260506144537 53 21 5.0 14.0 0.00 0.00 0.00 68 1015.3
20260506143047 53 192 2.0 8.0 0.00 0.00 0.00 64 1015.2
20260506141538 55 74 2.0 10.0 0.00 0.00 0.00 64 1015.2
20260506140035 55 81 2.0 9.0 0.00 0.00 0.00 65 1015.3
20260506134534 53 279 0.0 8.0 0.00 0.00 0.00 66 1015.3
20260506133033 53 30 2.0 8.0 0.00 0.00 0.00 66 1015.5
20260506131533 54 41 3.0 11.0 0.00 0.00 0.00 62 1015.4
20260506130033 55 51 2.0 9.0 0.00 0.00 0.00 62 1015.4